Regional Weather Roundup
Issued by NWS Albany, NY

Home | Current Version | Previous Version | Graphics & Text | Print | Product List | Glossary Off
Versions: 1 2 3 4 5 6 7 8 9 10 11 12 13 14 15 16 17 18 19 20 21 22 23 24 25 26 27

000
ASUS41 KALY 170910
RWRALY

NEW YORK STATE HOURLY WEATHER ROUNDUP
NATIONAL WEATHER SERVICE ALBANY NY
500 AM EDT TUE OCT 17 2017

NOTE: "FAIR" INDICATES FEW OR NO CLOUDS BELOW 12,000 FEET WITH NO
SIGNIFICANT WEATHER AND/OR NO OBSTRUCTIONS TO VISIBILITY.

NYZ032-033-038>043-046>054-057>066-NYZ062>081-082-084-171000-
EAST


CITY           SKY/WX    TMP DP  RH WIND       PRES   REMARKS
ALBANY         CLEAR     36  30  79 CALM      30.29R
GLENS FALLS    CLEAR     30  28  92 CALM      30.28R
POUGHKEEPSIE   CLEAR     32  29  88 CALM      30.27R
NEWBURGH       CLEAR     36  34  93 CALM      30.27S
MONTGOMERY     CLEAR     35  32  88 CALM      30.26R
WHITE PLAINS   CLEAR     37  31  78 NW6       30.25R WCI  32
ISLIP          CLEAR     44  34  67 N6        30.24R
NEW YORK CITY  CLEAR     46  35  65 N8        30.26R
CENTRAL PARK   PTCLDY    44  32  62 VRB5      30.29R
$$

NYZ005>009-017-018-044>046-055-056-171000-
CENTRAL


CITY           SKY/WX    TMP DP  RH WIND       PRES   REMARKS
FULTON         CLEAR     33  31  92 VRB3      30.28S
SYRACUSE       CLEAR     34  33  96 SE3       30.29S
ROME           CLEAR     30  29  96 CALM      30.31R
ELMIRA         CLEAR     33  32  96 SW7       30.30R WCI  27
BINGHAMTON     CLEAR     33  29  85 W3        30.27R
MONTICELLO     CLEAR     29  27  92 W5        30.26R WCI  24
$$

NYZ026>034-041>043-087-171000-
NORTH


CITY           SKY/WX    TMP DP  RH WIND       PRES   REMARKS
WATERTOWN      CLEAR     32  30  92 S5        30.27S WCI  27
FORT DRUM      NOT AVBL
OGDENSBURG     FAIR      33  32  97 S3        30.25S
MASSENA        CLEAR     31  30  96 S3        30.26S
SARANAC LAKE   CLEAR     24  24 100 CALM      30.21R
PLATTSBURGH    CLEAR     32  28  85 CALM      30.26R
$$

NYZ001>004-010>016-019>021-085-171000-
WEST


CITY           SKY/WX    TMP DP  RH WIND       PRES   REMARKS
NIAGARA FALLS    N/A     38  32  79 SE3       30.25S
BUFFALO        CLEAR     35  32  88 S6        30.26S WCI  30
DUNKIRK        CLEAR     41  34  76 S9        30.28R
JAMESTOWN      CLEAR     32  31  96 S5        30.28S WCI  27
WELLSVILLE     CLEAR     31  27  85 CALM      30.28R
ROCHESTER      CLEAR     35  34  96 SW7       30.29R WCI  29
$$

             KEY
       WCI = WIND CHILL INDEX
       VSB = VISIBILITY
       HX  = HEAT INDEX
$$




USA.gov is the U.S. government's official web portal to all federal, state and local government web resources and services.